User: anonymous   Login
Location: Caltech
(34.1382°N, 118.1253°W)
Time: 16:31:38
(UTC-08:00)
Language:

OPAL - Orbit

View from above orbital plane
View from above orbital plane
View from above satellite
View from above satellite

Ground track
Ground track

The orbit data is extracted from the following two-line orbital elements,

1 26063U 00004C   14351.49422369  .00000256  00000-0  10682-3 0  1360
2 26063 100.2258 171.4608 0036477 002.6784 357.4585 14.36460888780345
Epoch (UTC): 17 December 2014 11:51:40
Eccentricity: 0.0036477
inclination: 100.2258°
perigee height: 744 km
apogee height: 796 km
right ascension of ascending node: 171.4608°
argument of perigee: 2.6784°
revolutions per day: 14.36460888
mean anomaly at epoch: 357.4585°
orbit number at epoch: 78034

The dashed part of the orbit path shows where the satellite is in the earth's shadow,  

DLR